| time (UTC) | temp F | wind direction | speed MPH | gust MPH | rain 1hr in | rain 24hr in | rain mn in | humidity % | barometer mb |
| 20260506042517 | 41 | 45 | 1.0 | 3.0 | 0.00 | 0.00 | 0.00 | 86 | |
| 20260506041517 | 41 | 45 | 2.0 | 4.0 | 0.00 | 0.00 | 0.00 | 86 | |
| 20260506040517 | 41 | 68 | 2.0 | 6.0 | 0.00 | 0.00 | 0.00 | 85 | |
| 20260506035537 | 42 | 45 | 2.0 | 3.0 | 0.00 | 0.00 | 0.00 | 85 | |
| 20260506034517 | 42 | 68 | 3.0 | 5.0 | 0.00 | 0.00 | 0.00 | 85 | |
| 20260506033537 | 42 | 45 | 2.0 | 5.0 | 0.00 | 0.00 | 0.00 | 85 | |
| 20260506032517 | 42 | 0.0 | 2.0 | 0.00 | 0.00 | 0.00 | 85 | ||
| 20260506031516 | 42 | 68 | 2.0 | 8.0 | 0.00 | 0.00 | 0.00 | 85 | |
| 20260506030557 | 43 | 0.0 | 3.0 | 0.00 | 0.00 | 0.00 | 85 | ||
| 20260506025516 | 43 | 45 | 1.0 | 2.0 | 0.00 | 0.00 | 0.00 | 86 | |
| 20260506024536 | 43 | 68 | 3.0 | 7.0 | 0.00 | 0.00 | 0.00 | 86 | |
| 20260506023516 | 43 | 68 | 1.0 | 3.0 | 0.00 | 0.00 | 0.00 | 86 | |
| 20260506022537 | 43 | 45 | 3.0 | 6.0 | 0.00 | 0.00 | 0.00 | 86 | |
| 20260506021516 | 43 | 68 | 3.0 | 6.0 | 0.00 | 0.00 | 0.00 | 86 | |
| 20260506020537 | 43 | 68 | 3.0 | 5.0 | 0.00 | 0.00 | 0.00 | 86 | |
| 20260506015516 | 43 | 45 | 6.0 | 8.0 | 0.00 | 0.00 | 0.00 | 86 | |
| 20260506014516 | 43 | 45 | 6.0 | 11.0 | 0.00 | 0.00 | 0.00 | 86 | |
| 20260506013516 | 43 | 45 | 4.0 | 7.0 | 0.00 | 0.00 | 0.00 | 86 | |
| 20260506012516 | 43 | 68 | 6.0 | 11.0 | 0.00 | 0.00 | 0.00 | 86 | |
| 20260506011536 | 43 | 68 | 4.0 | 5.0 | 0.00 | 0.00 | 0.00 | 85 | |
| 20260506010516 | 43 | 68 | 2.0 | 3.0 | 0.00 | 0.00 | 0.00 | 85 | |
| 20260506005516 | 43 | 45 | 2.0 | 5.0 | 0.00 | 0.00 | 0.00 | 85 | |
| 20260506004516 | 44 | 68 | 2.0 | 4.0 | 0.00 | 0.00 | 0.00 | 85 | |
| 20260506003516 | 44 | 45 | 2.0 | 5.0 | 0.00 | 0.00 | 0.00 | 84 | |
| 20260506002516 | 44 | 45 | 2.0 | 4.0 | 0.00 | 0.00 | 0.00 | 84 | |
| 20260506001537 | 44 | 68 | 4.0 | 7.0 | 0.00 | 0.00 | 0.00 | 83 | |
| 20260506000516 | 44 | 45 | 2.0 | 4.0 | 0.00 | 0.00 | 0.00 | 83 | |
| 20260505235516 | 44 | 45 | 3.0 | 5.0 | 0.00 | 0.00 | 0.00 | 83 | |
| 20260505234516 | 44 | 45 | 2.0 | 4.0 | 0.00 | 0.00 | 0.00 | 82 | |
| 20260505233516 | 44 | 68 | 2.0 | 4.0 | 0.00 | 0.00 | 0.00 | 82 | |
| 20260505232516 | 45 | 45 | 3.0 | 6.0 | 0.00 | 0.00 | 0.00 | 82 | |
| 20260505231516 | 45 | 45 | 2.0 | 6.0 | 0.00 | 0.00 | 0.00 | 81 | |
| 20260505230516 | 45 | 45 | 2.0 | 6.0 | 0.00 | 0.00 | 0.00 | 80 | |
| 20260505225516 | 45 | 68 | 3.0 | 6.0 | 0.00 | 0.00 | 0.00 | 80 | |
| 20260505224536 | 45 | 68 | 2.0 | 4.0 | 0.00 | 0.00 | 0.00 | 79 | |
| 20260505223516 | 45 | 45 | 6.0 | 11.0 | 0.00 | 0.00 | 0.00 | 79 | |
| 20260505222516 | 45 | 68 | 4.0 | 9.0 | 0.00 | 0.00 | 0.00 | 79 | |
| 20260505221536 | 46 | 68 | 7.0 | 13.0 | 0.00 | 0.00 | 0.00 | 79 | |
| 20260505220536 | 46 | 45 | 4.0 | 7.0 | 0.00 | 0.00 | 0.00 | 80 | |
| 20260505215516 | 46 | 68 | 5.0 | 9.0 | 0.00 | 0.00 | 0.00 | 80 | |
| 20260505214516 | 46 | 68 | 5.0 | 10.0 | 0.00 | 0.00 | 0.00 | 79 | |
| 20260505213516 | 46 | 45 | 2.0 | 5.0 | 0.00 | 0.00 | 0.00 | 79 | |
| 20260505212536 | 47 | 68 | 2.0 | 5.0 | 0.00 | 0.00 | 0.00 | 80 | |
| 20260505211516 | 47 | 68 | 4.0 | 8.0 | 0.00 | 0.00 | 0.00 | 82 | |
| 20260505210516 | 47 | 45 | 5.0 | 8.0 | 0.00 | 0.00 | 0.00 | 81 | |
| 20260505205516 | 47 | 0 | 3.0 | 6.0 | 0.00 | 0.00 | 0.00 | 82 | |
| 20260505204536 | 47 | 68 | 4.0 | 9.0 | 0.00 | 0.00 | 0.00 | 83 | |
| 20260505203536 | 47 | 45 | 5.0 | 8.0 | 0.00 | 0.00 | 0.00 | 83 | |
| 20260505202516 | 48 | 68 | 5.0 | 12.0 | 0.00 | 0.00 | 0.00 | 83 | |
| 20260505201516 | 48 | 45 | 5.0 | 10.0 | 0.00 | 0.00 | 0.00 | 83 | |
| 20260505200516 | 48 | 68 | 2.0 | 6.0 | 0.00 | 0.00 | 0.00 | 84 | |
| 20260505195516 | 48 | 68 | 7.0 | 9.0 | 0.00 | 0.00 | 0.00 | 82 | |
| 20260505194515 | 49 | 45 | 6.0 | 9.0 | 0.00 | 0.00 | 0.00 | 83 | |
| 20260505193515 | 49 | 68 | 3.0 | 6.0 | 0.00 | 0.00 | 0.00 | 84 | |
| 20260505192516 | 49 | 45 | 4.0 | 6.0 | 0.00 | 0.00 | 0.00 | 84 | |
| 20260505191516 | 49 | 45 | 3.0 | 5.0 | 0.00 | 0.00 | 0.00 | 84 | |
| 20260505190536 | 50 | 45 | 3.0 | 5.0 | 0.00 | 0.00 | 0.00 | 82 | |
| 20260505185515 | 50 | 68 | 5.0 | 11.0 | 0.00 | 0.00 | 0.00 | 82 | |
| 20260505184516 | 50 | 68 | 6.0 | 11.0 | 0.00 | 0.00 | 0.00 | 82 | |
| 20260505183518 | 50 | 68 | 5.0 | 7.0 | 0.00 | 0.00 | 0.00 | 82 | |
| 20260505182516 | 50 | 68 | 6.0 | 11.0 | 0.00 | 0.00 | 0.00 | 82 | |
| 20260505181518 | 51 | 90 | 6.0 | 12.0 | 0.00 | 0.00 | 0.00 | 82 | |
| 20260505180515 | 51 | 68 | 9.0 | 12.0 | 0.00 | 0.00 | 0.00 | 82 | |
| 20260505175536 | 51 | 68 | 7.0 | 10.0 | 0.00 | 0.00 | 0.00 | 81 | |
| 20260505174516 | 52 | 45 | 6.0 | 12.0 | 0.00 | 0.00 | 0.00 | 80 | |
| 20260505173518 | 52 | 68 | 7.0 | 12.0 | 0.00 | 0.00 | 0.00 | 78 | |
| 20260505172518 | 53 | 68 | 7.0 | 30.0 | 0.00 | 0.00 | 0.00 | 75 | |
| 20260505171538 | 54 | 45 | 3.0 | 7.0 | 0.00 | 0.00 | 0.00 | 66 | |
| 20260505170538 | 54 | 45 | 2.0 | 3.0 | 0.00 | 0.00 | 0.00 | 66 | |
| 20260505165518 | 55 | 68 | 4.0 | 9.0 | 0.00 | 0.00 | 0.00 | 65 | |
| 20260505164518 | 55 | 68 | 2.0 | 5.0 | 0.00 | 0.00 | 0.00 | 64 | |
| 20260505163538 | 55 | 68 | 1.0 | 2.0 | 0.00 | 0.00 | 0.00 | 63 | |
| 20260505162518 | 55 | 293 | 1.0 | 3.0 | 0.00 | 0.00 | 0.00 | 63 | |
| 20260505161517 | 55 | 23 | 1.0 | 3.0 | 0.00 | 0.00 | 0.00 | 64 | |
| 20260505160517 | 55 | 315 | 3.0 | 5.0 | 0.00 | 0.00 | 0.00 | 63 | |
| 20260505152518 | 56 | 68 | 2.0 | 6.0 | 0.00 | 0.00 | 0.00 | 62 | |
| 20260505151517 | 56 | 68 | 4.0 | 8.0 | 0.00 | 0.00 | 0.00 | 62 | |
| 20260505150517 | 56 | 23 | 4.0 | 6.0 | 0.00 | 0.00 | 0.00 | 62 | |
| 20260505140537 | 57 | 68 | 2.0 | 4.0 | 0.00 | 0.00 | 0.00 | 61 | |
| 20260505124537 | 56 | 315 | 2.0 | 3.0 | 0.00 | 0.00 | 0.00 | 63 | |
| 20260505123537 | 55 | 45 | 1.0 | 4.0 | 0.00 | 0.00 | 0.00 | 60 | |
| 20260505122517 | 55 | 68 | 2.0 | 3.0 | 0.00 | 0.00 | 0.00 | 62 | |
| 20260505121517 | 55 | 45 | 2.0 | 4.0 | 0.00 | 0.00 | 0.00 | 61 | |
| 20260505120517 | 55 | 45 | 2.0 | 5.0 | 0.00 | 0.00 | 0.00 | 62 | |
| 20260505115517 | 55 | 338 | 2.0 | 4.0 | 0.00 | 0.00 | 0.00 | 61 | |
| 20260505114517 | 56 | 68 | 2.0 | 5.0 | 0.00 | 0.00 | 0.00 | 63 | |
| 20260505113517 | 55 | 338 | 3.0 | 4.0 | 0.00 | 0.00 | 0.00 | 63 | |
| 20260505112517 | 55 | 338 | 2.0 | 5.0 | 0.00 | 0.00 | 0.00 | 62 | |
| 20260505111537 | 56 | 338 | 3.0 | 6.0 | 0.00 | 0.00 | 0.00 | 62 | |
| 20260505110517 | 55 | 68 | 3.0 | 4.0 | 0.00 | 0.00 | 0.00 | 62 | |
| 20260505101517 | 55 | 68 | 6.0 | 9.0 | 0.00 | 0.00 | 0.00 | 65 | |
| 20260505100517 | 55 | 0 | 2.0 | 4.0 | 0.00 | 0.00 | 0.00 | 66 | |
| 20260505095537 | 55 | 315 | 2.0 | 4.0 | 0.00 | 0.00 | 0.00 | 65 | |
| 20260505094517 | 54 | 45 | 2.0 | 4.0 | 0.00 | 0.00 | 0.00 | 67 | |
| 20260505093517 | 54 | 45 | 1.0 | 4.0 | 0.00 | 0.00 | 0.00 | 66 | |
| 20260505092517 | 54 | 45 | 2.0 | 5.0 | 0.00 | 0.00 | 0.00 | 66 | |
| 20260505091517 | 54 | 0 | 3.0 | 5.0 | 0.00 | 0.00 | 0.00 | 67 | |
| 20260505090517 | 54 | 45 | 4.0 | 8.0 | 0.00 | 0.00 | 0.00 | 69 | |
| 20260505085517 | 54 | 45 | 3.0 | 5.0 | 0.00 | 0.00 | 0.00 | 70 | |
| 20260505084517 | 54 | 293 | 2.0 | 6.0 | 0.00 | 0.00 | 0.00 | 71 | |
| 20260505083537 | 53 | 338 | 2.0 | 4.0 | 0.00 | 0.00 | 0.00 | 71 | |
| 20260505082517 | 54 | 23 | 2.0 | 6.0 | 0.00 | 0.00 | 0.00 | 70 | |
| 20260505081517 | 53 | 23 | 1.0 | 5.0 | 0.00 | 0.00 | 0.00 | 73 | |
| 20260505080516 | 53 | 0 | 3.0 | 5.0 | 0.00 | 0.00 | 0.00 | 73 | |
| 20260505075537 | 52 | 338 | 1.0 | 3.0 | 0.00 | 0.00 | 0.00 | 75 | |
| 20260505074517 | 52 | 0 | 2.0 | 3.0 | 0.00 | 0.00 | 0.00 | 75 | |
| 20260505073517 | 52 | 45 | 1.0 | 3.0 | 0.00 | 0.00 | 0.00 | 76 | |
| 20260505072517 | 52 | 45 | 3.0 | 6.0 | 0.00 | 0.00 | 0.00 | 76 | |
| 20260505071518 | 51 | 315 | 2.0 | 3.0 | 0.00 | 0.00 | 0.00 | 78 | |
| 20260505070516 | 51 | 0.0 | 2.0 | 0.00 | 0.00 | 0.00 | 80 | ||
| 20260505065537 | 50 | 315 | 2.0 | 4.0 | 0.00 | 0.00 | 0.00 | 80 | |
| 20260505064536 | 50 | 23 | 2.0 | 4.0 | 0.00 | 0.00 | 0.00 | 81 | |
| 20260505063516 | 49 | 0.0 | 1.0 | 0.00 | 0.00 | 0.00 | 85 | ||
| 20260505062517 | 48 | 45 | 1.0 | 2.0 | 0.00 | 0.00 | 0.00 | 86 | |
| 20260505061537 | 47 | 0.0 | 1.0 | 0.00 | 0.00 | 0.00 | 88 | ||
| 20260505060537 | 46 | 338 | 1.0 | 1.0 | 0.00 | 0.00 | 0.00 | 87 | |
| 20260505055516 | 47 | 0.0 | 1.0 | 0.00 | 0.00 | 0.00 | 88 | ||
| 20260505054537 | 46 | 0.0 | 1.0 | 0.00 | 0.00 | 0.00 | 89 | ||
| 20260505053516 | 45 | 0.0 | 2.0 | 0.00 | 0.00 | 0.00 | 89 | ||
| 20260505052516 | 45 | 293 | 1.0 | 2.0 | 0.00 | 0.00 | 0.00 | 90 | |
| 20260505051516 | 44 | 0.0 | 2.0 | 0.00 | 0.00 | 0.00 | 91 | ||
| 20260505050536 | 43 | 0.0 | 1.0 | 0.00 | 0.00 | 0.00 | 91 |